{"data":{"norad_id":68785,"epoch":"2026-09-19T02:11:17.520864Z","epoch_age_seconds":161811,"freshness":"FRESH","line1":"1 68785U 26086V   26262.09117501  .00015537  00000+0  48243-3 0  9992","line2":"2 68785  97.2853 297.6089 0001091  96.5014 263.6353 15.33455486 23475","mean_motion":15.33455486,"eccentricity":0.0001091,"inclination_deg":97.2853,"raan_deg":297.6089,"arg_perigee_deg":96.5014,"mean_anomaly_deg":263.6353,"bstar":0.00048243,"rev_number":2347,"period_min":93.905562512038,"perigee_km":464.7653335942,"apogee_km":466.25861780069,"semimajor_km":6843.6489756974,"source":"CELESTRAK","updated_at":"2026-09-20T09:00:44.002909Z"}}